User: anonymous   Login
Location: Keeble Observatory
(37.7625°N, 77.4755°W)
Time: 13:23:13
(UTC-04:00)
Language:

Cosmos 1484 Rocket - Orbit

View from above orbital plane
View from above orbital plane
View from above satellite
View from above satellite

Ground track
Ground track

The orbit data is extracted from the following two-line orbital elements,

1 14208U 83075B   16125.07805398  .00001270  00000-0  80671-4 0  9999
2 14208  97.3575 146.2078 0041685 101.6646 258.9266 15.09876672785761
Epoch (UTC): 04 May 2016 01:52:23
Eccentricity: 0.0041685
inclination: 97.3575°
perigee height: 508 km
apogee height: 565 km
right ascension of ascending node: 146.2078°
argument of perigee: 101.6646°
revolutions per day: 15.09876672
mean anomaly at epoch: 258.9266°
orbit number at epoch: 78576

The dashed part of the orbit path shows where the satellite is in the earth's shadow,  

DLR